Location: Maiden
(35.5760°N, 81.2120°W)
Time: 01:48:01
(UTC-04:00)

A-11 Canister half - Pass Details

Date: 13 August 2020
Orbit: 1527 x 1682 km, 47.3° (Epoch: 25 September)

Event Time Altitude Azimuth Distance (km) Brightness Sun altitude
Rises 17:52:43 0° 303° (WNW) 4,935 12.5 27.8°
Reaches altitude 10° 17:55:56 10° 305° (NW) 3,938 12.1 27.2°
Maximum altitude 18:06:05 75° 31° (NNE) 1,702 9.6 25.1°
Drops below altitude 10° 18:15:55 10° 116° (ESE) 3,830 10.6 23.1°
Sets 18:18:59 0° 119° (ESE) 4,793 11.1 22.5°
